Year,Month,Day,Hour,Minute,Value (Times are PST for windspeed in km/hr)
2006,12,12,00,00,7.20
2006,12,12,00,01,4.00
2006,12,12,00,02,2.80
2006,12,12,00,03,8.10
2006,12,12,00,04,3.80
2006,12,12,00,05,3.90
2006,12,12,00,06,4.00
2006,12,12,00,07,2.60
2006,12,12,00,08,10.10
2006,12,12,00,09,9.20
2006,12,12,00,10,7.20
2006,12,12,00,11,11.20
2006,12,12,00,12,11.70
2006,12,12,00,13,15.90
2006,12,12,00,14,13.40
2006,12,12,00,15,11.40
2006,12,12,00,16,7.40
2006,12,12,00,17,11.30
2006,12,12,00,18,7.40
2006,12,12,00,19,4.50
2006,12,12,00,20,5.10
2006,12,12,00,21,12.60
2006,12,12,00,22,6.60
2006,12,12,00,23,6.20
2006,12,12,00,24,11.40
2006,12,12,00,25,12.80
2006,12,12,00,26,11.60
2006,12,12,00,27,8.00
2006,12,12,00,28,11.10
2006,12,12,00,29,6.20
2006,12,12,00,30,7.10
2006,12,12,00,31,4.80
2006,12,12,00,32,7.10
2006,12,12,00,33,4.40
2006,12,12,00,34,8.40
2006,12,12,00,35,7.10
2006,12,12,00,36,15.90
2006,12,12,00,37,13.40
2006,12,12,00,38,13.20
2006,12,12,00,39,6.40
2006,12,12,00,40,7.50
2006,12,12,00,41,8.40
2006,12,12,00,42,6.50
2006,12,12,00,43,6.80
2006,12,12,00,44,5.70
2006,12,12,00,45,8.70
2006,12,12,00,46,4.80
2006,12,12,00,47,6.40
2006,12,12,00,48,6.10
2006,12,12,00,49,6.10
2006,12,12,00,50,5.10
2006,12,12,00,51,2.20
2006,12,12,00,52,0.60
2006,12,12,00,53,3.80
2006,12,12,00,54,2.80
2006,12,12,00,55,2.20
2006,12,12,00,56,7.10
2006,12,12,00,57,6.70
2006,12,12,00,58,8.40
2006,12,12,00,59,6.50
2006,12,12,01,00,1.90
2006,12,12,01,01,9.40
2006,12,12,01,02,9.00
2006,12,12,01,03,8.50
2006,12,12,01,04,7.40
2006,12,12,01,05,5.10
2006,12,12,01,06,7.50
2006,12,12,01,07,6.40
2006,12,12,01,08,7.60
2006,12,12,01,09,7.70
2006,12,12,01,10,7.70
2006,12,12,01,11,5.80
2006,12,12,01,12,2.70
2006,12,12,01,13,2.80
2006,12,12,01,14,8.20
2006,12,12,01,15,5.40
2006,12,12,01,16,4.10
2006,12,12,01,17,4.70
2006,12,12,01,18,6.10
2006,12,12,01,19,3.90
2006,12,12,01,20,5.60
2006,12,12,01,21,6.40
2006,12,12,01,22,3.30
2006,12,12,01,23,5.60
2006,12,12,01,24,4.80
2006,12,12,01,25,5.70
2006,12,12,01,26,8.50
2006,12,12,01,27,8.50
2006,12,12,01,28,7.50
2006,12,12,01,29,6.10
2006,12,12,01,30,6.90
2006,12,12,01,31,5.80
2006,12,12,01,32,5.90
2006,12,12,01,33,3.60
2006,12,12,01,34,4.30
2006,12,12,01,35,4.20
2006,12,12,01,36,2.10
2006,12,12,01,37,5.30
2006,12,12,01,38,12.10
2006,12,12,01,39,5.60
2006,12,12,01,40,6.00
2006,12,12,01,41,2.70
2006,12,12,01,42,1.60
2006,12,12,01,43,4.70
2006,12,12,01,44,5.70
2006,12,12,01,45,5.10
2006,12,12,01,46,2.80
2006,12,12,01,47,0.70
2006,12,12,01,48,0.40
2006,12,12,01,49,0.00
2006,12,12,01,50,0.20
2006,12,12,01,51,0.00
2006,12,12,01,52,0.10
2006,12,12,01,53,1.00
2006,12,12,01,54,1.60
2006,12,12,01,55,0.40
2006,12,12,01,56,0.80
2006,12,12,01,57,1.00
2006,12,12,01,58,2.60
2006,12,12,01,59,4.10
2006,12,12,02,00,3.90
2006,12,12,02,01,3.50
2006,12,12,02,02,2.30
2006,12,12,02,03,2.20
2006,12,12,02,04,2.00
2006,12,12,02,05,3.20
2006,12,12,02,06,1.90
2006,12,12,02,07,3.60
2006,12,12,02,08,3.00
2006,12,12,02,09,0.10
2006,12,12,02,10,0.30
2006,12,12,02,11,2.40
2006,12,12,02,12,3.40
2006,12,12,02,13,2.10
2006,12,12,02,14,2.30
2006,12,12,02,15,9.00
2006,12,12,02,16,4.50
2006,12,12,02,17,6.40
2006,12,12,02,18,3.00
2006,12,12,02,19,2.50
2006,12,12,02,20,5.80
2006,12,12,02,21,3.50
2006,12,12,02,22,3.40
2006,12,12,02,23,3.80
2006,12,12,02,24,4.30
2006,12,12,02,25,12.30
2006,12,12,02,26,6.90
2006,12,12,02,27,1.90
2006,12,12,02,28,6.80
2006,12,12,02,29,8.30
2006,12,12,02,30,4.80
2006,12,12,02,31,7.40
2006,12,12,02,32,1.30
2006,12,12,02,33,0.70
2006,12,12,02,34,5.00
2006,12,12,02,35,5.60
2006,12,12,02,36,7.70
2006,12,12,02,37,3.20
2006,12,12,02,38,5.30
2006,12,12,02,39,5.20
2006,12,12,02,40,1.80
2006,12,12,02,41,3.40
2006,12,12,02,42,3.40
2006,12,12,02,43,4.60
2006,12,12,02,44,3.50
2006,12,12,02,45,1.70
2006,12,12,02,46,5.40
2006,12,12,02,47,3.20
2006,12,12,02,48,4.00
2006,12,12,02,49,9.00
2006,12,12,02,50,7.40
2006,12,12,02,51,6.00
2006,12,12,02,52,6.70
2006,12,12,02,53,2.50
2006,12,12,02,54,2.30
2006,12,12,02,55,3.50
2006,12,12,02,56,4.60
2006,12,12,02,57,3.20
2006,12,12,02,58,3.90
2006,12,12,02,59,2.60
2006,12,12,03,00,2.20
2006,12,12,03,01,3.50
2006,12,12,03,02,2.20
2006,12,12,03,03,2.10
2006,12,12,03,04,5.20
2006,12,12,03,05,8.30
2006,12,12,03,06,1.80
2006,12,12,03,07,3.20
2006,12,12,03,08,8.00
2006,12,12,03,09,6.00
2006,12,12,03,10,4.70
2006,12,12,03,11,1.70
2006,12,12,03,12,8.00
2006,12,12,03,13,7.20
2006,12,12,03,14,3.40
2006,12,12,03,15,5.50
2006,12,12,03,16,7.90
2006,12,12,03,17,6.70
2006,12,12,03,18,2.80
2006,12,12,03,19,9.70
2006,12,12,03,20,17.20
2006,12,12,03,21,8.10
2006,12,12,03,22,6.20
2006,12,12,03,23,7.60
2006,12,12,03,24,5.60
2006,12,12,03,25,5.00
2006,12,12,03,26,4.70
2006,12,12,03,27,14.50
2006,12,12,03,28,13.10
2006,12,12,03,29,6.80
2006,12,12,03,30,5.70
2006,12,12,03,31,6.50
2006,12,12,03,32,8.10
2006,12,12,03,33,3.70
2006,12,12,03,34,6.60
2006,12,12,03,35,10.30
2006,12,12,03,36,12.80
2006,12,12,03,37,12.80
2006,12,12,03,38,8.70
2006,12,12,03,39,5.30
2006,12,12,03,40,3.80
2006,12,12,03,41,7.10
2006,12,12,03,42,5.70
2006,12,12,03,43,1.90
2006,12,12,03,44,6.00
2006,12,12,03,45,7.20
2006,12,12,03,46,4.90
2006,12,12,03,47,4.70
2006,12,12,03,48,14.90
2006,12,12,03,49,5.00
2006,12,12,03,50,6.20
2006,12,12,03,51,8.70
2006,12,12,03,52,5.50
2006,12,12,03,53,2.80
2006,12,12,03,54,3.70
2006,12,12,03,55,4.20
2006,12,12,03,56,5.20
2006,12,12,03,57,9.40
2006,12,12,03,58,4.80
2006,12,12,03,59,5.60
2006,12,12,04,00,6.60
2006,12,12,04,01,7.60
2006,12,12,04,02,5.00
2006,12,12,04,03,4.50
2006,12,12,04,04,5.70
2006,12,12,04,05,6.80
2006,12,12,04,06,5.20
2006,12,12,04,07,9.60
2006,12,12,04,08,8.50
2006,12,12,04,09,14.60
2006,12,12,04,10,6.70
2006,12,12,04,11,6.70
2006,12,12,04,12,9.30
2006,12,12,04,13,11.50
2006,12,12,04,14,5.70
2006,12,12,04,15,7.40
2006,12,12,04,16,7.70
2006,12,12,04,17,5.90
2006,12,12,04,18,5.70
2006,12,12,04,19,7.20
2006,12,12,04,20,5.30
2006,12,12,04,21,7.10
2006,12,12,04,22,6.80
2006,12,12,04,23,3.20
2006,12,12,04,24,5.10
2006,12,12,04,25,6.50
2006,12,12,04,26,5.60
2006,12,12,04,27,4.70
2006,12,12,04,28,7.20
2006,12,12,04,29,10.10
2006,12,12,04,30,9.30
2006,12,12,04,31,9.60
2006,12,12,04,32,5.70
2006,12,12,04,33,4.90
2006,12,12,04,34,4.60
2006,12,12,04,35,4.60
2006,12,12,04,36,12.00
2006,12,12,04,37,10.30
2006,12,12,04,38,13.00
2006,12,12,04,39,12.30
2006,12,12,04,40,14.30
2006,12,12,04,41,10.60
2006,12,12,04,42,5.10
2006,12,12,04,43,8.40
2006,12,12,04,44,13.50
2006,12,12,04,45,10.20
2006,12,12,04,46,8.10
2006,12,12,04,47,6.70
2006,12,12,04,48,6.70
2006,12,12,04,49,8.90
2006,12,12,04,50,7.40
2006,12,12,04,51,4.70
2006,12,12,04,52,7.90
2006,12,12,04,53,7.90
2006,12,12,04,54,7.20
2006,12,12,04,55,7.30
2006,12,12,04,56,6.40
2006,12,12,04,57,4.10
2006,12,12,04,58,7.10
2006,12,12,04,59,9.50
2006,12,12,05,00,15.90
2006,12,12,05,01,11.10
2006,12,12,05,02,7.90
2006,12,12,05,03,8.70
2006,12,12,05,04,7.70
2006,12,12,05,05,5.20
2006,12,12,05,06,4.20
2006,12,12,05,07,15.50
2006,12,12,05,08,9.20
2006,12,12,05,09,4.20
2006,12,12,05,10,5.70
2006,12,12,05,11,9.60
2006,12,12,05,12,8.20
2006,12,12,05,13,6.70
2006,12,12,05,14,6.70
2006,12,12,05,15,3.30
2006,12,12,05,16,6.20
2006,12,12,05,17,7.00
2006,12,12,05,18,6.40
2006,12,12,05,19,6.50
2006,12,12,05,20,1.30
2006,12,12,05,21,1.40
2006,12,12,05,22,5.30
2006,12,12,05,23,2.30
2006,12,12,05,24,0.60
2006,12,12,05,25,2.00
2006,12,12,05,26,1.10
2006,12,12,05,27,1.80
2006,12,12,05,28,3.10
2006,12,12,05,29,0.60
2006,12,12,05,30,2.30
2006,12,12,05,31,3.10
2006,12,12,05,32,1.20
2006,12,12,05,33,4.50
2006,12,12,05,34,3.10
2006,12,12,05,35,3.70
2006,12,12,05,36,3.20
2006,12,12,05,37,4.60
2006,12,12,05,38,3.70
2006,12,12,05,39,6.40
2006,12,12,05,40,6.50
2006,12,12,05,41,5.90
2006,12,12,05,42,5.10
2006,12,12,05,43,2.20
2006,12,12,05,44,6.00
2006,12,12,05,45,4.80
2006,12,12,05,46,6.90
2006,12,12,05,47,7.80
2006,12,12,05,48,4.30
2006,12,12,05,49,7.30
2006,12,12,05,50,4.00
2006,12,12,05,51,1.30
2006,12,12,05,52,4.30
2006,12,12,05,53,5.40
2006,12,12,05,54,3.10
2006,12,12,05,55,4.10
2006,12,12,05,56,5.40
2006,12,12,05,57,7.00
2006,12,12,05,58,3.00
2006,12,12,05,59,11.40
2006,12,12,06,00,4.20
2006,12,12,06,01,3.40
2006,12,12,06,02,9.10
2006,12,12,06,03,5.10
2006,12,12,06,04,6.80
2006,12,12,06,05,6.90
2006,12,12,06,06,8.00
2006,12,12,06,07,8.90
2006,12,12,06,08,4.70
2006,12,12,06,09,2.10
2006,12,12,06,10,1.00
2006,12,12,06,11,3.60
2006,12,12,06,12,3.80
2006,12,12,06,13,2.50
2006,12,12,06,14,2.10
2006,12,12,06,15,2.50
2006,12,12,06,16,0.80
2006,12,12,06,17,2.00
2006,12,12,06,18,4.40
2006,12,12,06,19,6.40
2006,12,12,06,20,3.10
2006,12,12,06,21,2.70
2006,12,12,06,22,2.30
2006,12,12,06,23,4.20
2006,12,12,06,24,1.20
2006,12,12,06,25,1.20
2006,12,12,06,26,2.20
2006,12,12,06,27,2.80
2006,12,12,06,28,3.50
2006,12,12,06,29,1.20
2006,12,12,06,30,1.20
2006,12,12,06,31,1.40
2006,12,12,06,32,2.70
2006,12,12,06,33,1.70
2006,12,12,06,34,8.60
2006,12,12,06,35,4.30
2006,12,12,06,36,5.70
2006,12,12,06,37,2.00
2006,12,12,06,38,0.00
2006,12,12,06,39,1.10
2006,12,12,06,40,0.20
2006,12,12,06,41,1.10
2006,12,12,06,42,3.10
2006,12,12,06,43,1.00
2006,12,12,06,44,0.40
2006,12,12,06,45,1.80
2006,12,12,06,46,0.80
2006,12,12,06,47,1.90
2006,12,12,06,48,2.80
2006,12,12,06,49,3.20
2006,12,12,06,50,2.20
2006,12,12,06,51,1.40
2006,12,12,06,52,0.60
2006,12,12,06,53,0.20
2006,12,12,06,54,0.00
2006,12,12,06,55,0.10
2006,12,12,06,56,0.00
2006,12,12,06,57,0.00
2006,12,12,06,58,0.10
2006,12,12,06,59,0.50
2006,12,12,07,00,0.40
2006,12,12,07,01,1.10
2006,12,12,07,02,2.70
2006,12,12,07,03,3.10
2006,12,12,07,04,1.90
2006,12,12,07,05,0.60
2006,12,12,07,06,1.20
2006,12,12,07,07,0.20
2006,12,12,07,08,4.00
2006,12,12,07,09,6.20
2006,12,12,07,10,7.20
2006,12,12,07,11,13.80
2006,12,12,07,12,9.30
2006,12,12,07,13,7.40
2006,12,12,07,14,3.60
2006,12,12,07,15,3.20
2006,12,12,07,16,5.10
2006,12,12,07,17,6.10
2006,12,12,07,18,4.80
2006,12,12,07,19,5.80
2006,12,12,07,20,1.80
2006,12,12,07,21,2.50
2006,12,12,07,22,4.40
2006,12,12,07,23,3.60
2006,12,12,07,24,2.70
2006,12,12,07,25,2.70
2006,12,12,07,26,6.80
2006,12,12,07,27,2.50
2006,12,12,07,28,3.50
2006,12,12,07,29,5.10
2006,12,12,07,30,3.60
2006,12,12,07,31,4.30
2006,12,12,07,32,7.10
2006,12,12,07,33,7.40
2006,12,12,07,34,5.30
2006,12,12,07,35,7.10
2006,12,12,07,36,5.50
2006,12,12,07,37,4.30
2006,12,12,07,38,5.60
2006,12,12,07,39,4.70
2006,12,12,07,40,0.90
2006,12,12,07,41,3.70
2006,12,12,07,42,5.40
2006,12,12,07,43,5.10
2006,12,12,07,44,6.70
2006,12,12,07,45,6.10
2006,12,12,07,46,7.40
2006,12,12,07,47,4.00
2006,12,12,07,48,5.50
2006,12,12,07,49,5.40
2006,12,12,07,50,5.20
2006,12,12,07,51,3.10
2006,12,12,07,52,4.90
2006,12,12,07,53,8.50
2006,12,12,07,54,6.60
2006,12,12,07,55,5.30
2006,12,12,07,56,4.80
2006,12,12,07,57,3.60
2006,12,12,07,58,4.50
2006,12,12,07,59,5.00
2006,12,12,08,00,3.60
2006,12,12,08,01,5.40
2006,12,12,08,02,4.50
2006,12,12,08,03,5.70
2006,12,12,08,04,3.90
2006,12,12,08,05,3.90
2006,12,12,08,06,0.60
2006,12,12,08,07,1.90
2006,12,12,08,08,1.30
2006,12,12,08,09,1.90
2006,12,12,08,10,2.10
2006,12,12,08,11,4.80
2006,12,12,08,12,2.50
2006,12,12,08,13,3.20
2006,12,12,08,14,1.50
2006,12,12,08,15,1.20
2006,12,12,08,16,1.50
2006,12,12,08,17,2.30
2006,12,12,08,18,0.20
2006,12,12,08,19,0.50
2006,12,12,08,20,0.30
2006,12,12,08,21,0.20
2006,12,12,08,22,0.20
2006,12,12,08,23,0.00
2006,12,12,08,24,0.00
2006,12,12,08,25,0.50
2006,12,12,08,26,0.20
2006,12,12,08,27,0.00
2006,12,12,08,28,1.40
2006,12,12,08,29,2.20
2006,12,12,08,30,2.80
2006,12,12,08,31,3.00
2006,12,12,08,32,1.40
2006,12,12,08,33,0.70
2006,12,12,08,34,2.20
2006,12,12,08,35,1.70
2006,12,12,08,36,0.60
2006,12,12,08,37,0.30
2006,12,12,08,38,0.00
2006,12,12,08,39,0.00
2006,12,12,08,40,0.00
2006,12,12,08,41,0.10
2006,12,12,08,42,0.20
2006,12,12,08,43,0.10
2006,12,12,08,44,0.30
2006,12,12,08,45,0.10
2006,12,12,08,46,0.90
2006,12,12,08,47,0.00
2006,12,12,08,48,0.00
2006,12,12,08,49,1.10
2006,12,12,08,50,0.00
2006,12,12,08,51,0.60
2006,12,12,08,52,0.20
2006,12,12,08,53,3.70
2006,12,12,08,54,2.00
2006,12,12,08,55,2.30
2006,12,12,08,56,1.40
2006,12,12,08,57,4.20
2006,12,12,08,58,1.90
2006,12,12,08,59,6.00
2006,12,12,09,00,4.10
2006,12,12,09,01,7.80
2006,12,12,09,02,5.60
2006,12,12,09,03,6.70
2006,12,12,09,04,3.80
2006,12,12,09,05,1.90
2006,12,12,09,06,6.00
2006,12,12,09,07,3.10
2006,12,12,09,08,7.00
2006,12,12,09,09,4.70
2006,12,12,09,10,6.70
2006,12,12,09,11,1.50
2006,12,12,09,12,1.90
2006,12,12,09,13,4.10
2006,12,12,09,14,8.10
2006,12,12,09,15,2.60
2006,12,12,09,16,0.40
2006,12,12,09,17,2.10
2006,12,12,09,18,1.10
2006,12,12,09,19,2.60
2006,12,12,09,20,2.00
2006,12,12,09,21,4.30
2006,12,12,09,22,2.50
2006,12,12,09,23,1.10
2006,12,12,09,24,3.00
2006,12,12,09,25,5.70
2006,12,12,09,26,3.80
2006,12,12,09,27,5.20
2006,12,12,09,28,6.10
2006,12,12,09,29,5.30
2006,12,12,09,30,6.40
2006,12,12,09,31,2.40
2006,12,12,09,32,6.00
2006,12,12,09,33,6.20
2006,12,12,09,34,4.00
2006,12,12,09,35,7.20
2006,12,12,09,36,6.00
2006,12,12,09,37,5.20
2006,12,12,09,38,5.10
2006,12,12,09,39,4.80
2006,12,12,09,40,4.10
2006,12,12,09,41,3.50
2006,12,12,09,42,2.40
2006,12,12,09,43,5.40
2006,12,12,09,44,4.10
2006,12,12,09,45,5.70
2006,12,12,09,46,4.10
2006,12,12,09,47,3.30
2006,12,12,09,48,1.50
2006,12,12,09,49,0.30
2006,12,12,09,50,0.50
2006,12,12,09,51,1.00
2006,12,12,09,52,2.70
2006,12,12,09,53,0.60
2006,12,12,09,54,4.20
2006,12,12,09,55,5.10
2006,12,12,09,56,5.10
2006,12,12,09,57,6.00
2006,12,12,09,58,6.30
2006,12,12,09,59,4.20
2006,12,12,10,00,5.30
2006,12,12,10,01,7.10
2006,12,12,10,02,4.30
2006,12,12,10,03,4.70
2006,12,12,10,04,5.60
2006,12,12,10,05,6.00
2006,12,12,10,06,4.70
2006,12,12,10,07,3.80
2006,12,12,10,08,3.30
2006,12,12,10,09,3.40
2006,12,12,10,10,0.70
2006,12,12,10,11,0.60
2006,12,12,10,12,3.20
2006,12,12,10,13,4.90
2006,12,12,10,14,2.10
2006,12,12,10,15,1.80
2006,12,12,10,16,2.00
2006,12,12,10,17,1.20
2006,12,12,10,18,4.30
2006,12,12,10,19,6.60
2006,12,12,10,20,2.10
2006,12,12,10,21,3.50
2006,12,12,10,22,0.70
2006,12,12,10,23,2.40
2006,12,12,10,24,2.90
2006,12,12,10,25,1.30
2006,12,12,10,26,2.40
2006,12,12,10,27,2.40
2006,12,12,10,28,1.20
2006,12,12,10,29,3.90
2006,12,12,10,30,2.60
2006,12,12,10,31,5.70
2006,12,12,10,32,6.20
2006,12,12,10,33,5.80
2006,12,12,10,34,9.80
2006,12,12,10,35,6.20
2006,12,12,10,36,5.70
2006,12,12,10,37,11.90
2006,12,12,10,38,5.80
2006,12,12,10,39,6.50
2006,12,12,10,40,4.60
2006,12,12,10,41,6.90
2006,12,12,10,42,7.90
2006,12,12,10,43,4.70
2006,12,12,10,44,4.70
2006,12,12,10,45,7.10
2006,12,12,10,46,8.90
2006,12,12,10,47,10.30
2006,12,12,10,48,9.40
2006,12,12,10,49,6.60
2006,12,12,10,50,4.10
2006,12,12,10,51,5.10
2006,12,12,10,52,6.90
2006,12,12,10,53,4.60
2006,12,12,10,54,5.20
2006,12,12,10,55,9.30
2006,12,12,10,56,7.00
2006,12,12,10,57,4.50
2006,12,12,10,58,3.70
2006,12,12,10,59,4.70
2006,12,12,11,00,2.80
2006,12,12,11,01,5.70
2006,12,12,11,02,7.50
2006,12,12,11,03,4.70
2006,12,12,11,04,3.40
2006,12,12,11,05,2.10
2006,12,12,11,06,1.90
2006,12,12,11,07,4.40
2006,12,12,11,08,4.60
2006,12,12,11,09,2.70
2006,12,12,11,10,3.10
2006,12,12,11,11,4.50
2006,12,12,11,12,4.20
2006,12,12,11,13,7.00
2006,12,12,11,14,5.10
2006,12,12,11,15,3.20
2006,12,12,11,16,2.60
2006,12,12,11,17,2.20
2006,12,12,11,18,4.70
2006,12,12,11,19,3.40
2006,12,12,11,20,3.50
2006,12,12,11,21,3.20
2006,12,12,11,22,5.90
2006,12,12,11,23,6.70
2006,12,12,11,24,7.30
2006,12,12,11,25,3.60
2006,12,12,11,26,3.90
2006,12,12,11,27,1.80
2006,12,12,11,28,0.90
2006,12,12,11,29,3.50
2006,12,12,11,30,3.20
2006,12,12,11,31,6.10
2006,12,12,11,32,4.00
2006,12,12,11,33,5.20
2006,12,12,11,34,4.10
2006,12,12,11,35,6.30
2006,12,12,11,36,5.60
2006,12,12,11,37,3.40
2006,12,12,11,38,3.80
2006,12,12,11,39,6.90
2006,12,12,11,40,8.70
2006,12,12,11,41,6.80
2006,12,12,11,42,3.10
2006,12,12,11,43,6.70
2006,12,12,11,44,6.30
2006,12,12,11,45,6.40
2006,12,12,11,46,4.80
2006,12,12,11,47,5.40
2006,12,12,11,48,4.40
2006,12,12,11,49,5.80
2006,12,12,11,50,4.40
2006,12,12,11,51,2.00
2006,12,12,11,52,2.00
2006,12,12,11,53,1.90
2006,12,12,11,54,3.40
2006,12,12,11,55,5.60
2006,12,12,11,56,3.90
2006,12,12,11,57,3.50
2006,12,12,11,58,3.10
2006,12,12,11,59,3.10
2006,12,12,12,00,3.70
2006,12,12,12,01,7.50
2006,12,12,12,02,4.40
2006,12,12,12,03,4.40
2006,12,12,12,04,7.00
2006,12,12,12,05,7.60
2006,12,12,12,06,7.40
2006,12,12,12,07,4.10
2006,12,12,12,08,3.40
2006,12,12,12,09,1.80
2006,12,12,12,10,4.50
2006,12,12,12,11,4.90
2006,12,12,12,12,3.40
2006,12,12,12,13,6.40
2006,12,12,12,14,4.20
2006,12,12,12,15,3.70
2006,12,12,12,16,3.60
2006,12,12,12,17,5.50
2006,12,12,12,18,4.30
2006,12,12,12,19,5.60
2006,12,12,12,20,2.80
2006,12,12,12,21,3.20
2006,12,12,12,22,5.20
2006,12,12,12,23,0.20
2006,12,12,12,24,0.40
2006,12,12,12,25,1.00
2006,12,12,12,26,0.30
2006,12,12,12,27,0.20
2006,12,12,12,28,0.20
2006,12,12,12,29,4.50
2006,12,12,12,30,4.40
2006,12,12,12,31,4.30
2006,12,12,12,32,7.10
2006,12,12,12,33,9.90
2006,12,12,12,34,5.50
2006,12,12,12,35,3.90
2006,12,12,12,36,0.40
2006,12,12,12,37,0.40
2006,12,12,12,38,0.70
2006,12,12,12,39,0.00
2006,12,12,12,40,2.60
2006,12,12,12,41,2.10
2006,12,12,12,42,3.40
2006,12,12,12,43,1.30
2006,12,12,12,44,0.20
2006,12,12,12,45,1.30
2006,12,12,12,46,1.60
2006,12,12,12,47,1.70
2006,12,12,12,48,1.40
2006,12,12,12,49,5.60
2006,12,12,12,50,2.80
2006,12,12,12,51,1.70
2006,12,12,12,52,0.00
2006,12,12,12,53,2.00
2006,12,12,12,54,2.30
2006,12,12,12,55,2.50
2006,12,12,12,56,1.90
2006,12,12,12,57,0.60
2006,12,12,12,58,3.50
2006,12,12,12,59,4.90
2006,12,12,13,00,6.40
2006,12,12,13,01,2.00
2006,12,12,13,02,5.80
2006,12,12,13,03,5.00
2006,12,12,13,04,6.00
2006,12,12,13,05,5.60
2006,12,12,13,06,3.70
2006,12,12,13,07,6.10
2006,12,12,13,08,7.70
2006,12,12,13,09,7.50
2006,12,12,13,10,4.10
2006,12,12,13,11,2.70
2006,12,12,13,12,4.20
2006,12,12,13,13,4.00
2006,12,12,13,14,4.30
2006,12,12,13,15,3.00
2006,12,12,13,16,4.70
2006,12,12,13,17,4.30
2006,12,12,13,18,4.20
2006,12,12,13,19,3.30
2006,12,12,13,20,4.60
2006,12,12,13,21,4.50
2006,12,12,13,22,6.50
2006,12,12,13,23,6.10
2006,12,12,13,24,0.50
2006,12,12,13,25,0.70
2006,12,12,13,26,1.40
2006,12,12,13,27,3.10
2006,12,12,13,28,5.20
2006,12,12,13,29,5.60
2006,12,12,13,30,5.10
2006,12,12,13,31,5.70
2006,12,12,13,32,7.40
2006,12,12,13,33,3.90
2006,12,12,13,34,3.10
2006,12,12,13,35,3.80
2006,12,12,13,36,5.20
2006,12,12,13,37,3.70
2006,12,12,13,38,6.40
2006,12,12,13,39,5.70
2006,12,12,13,40,5.40
2006,12,12,13,41,5.10
2006,12,12,13,42,7.90
2006,12,12,13,43,7.50
2006,12,12,13,44,8.10
2006,12,12,13,45,9.10
2006,12,12,13,46,4.90
2006,12,12,13,47,5.70
2006,12,12,13,48,3.50
2006,12,12,13,49,2.80
2006,12,12,13,50,4.60
2006,12,12,13,51,2.50
2006,12,12,13,52,3.10
2006,12,12,13,53,3.90
2006,12,12,13,54,3.90
2006,12,12,13,55,6.70
2006,12,12,13,56,5.10
2006,12,12,13,57,6.30
2006,12,12,13,58,7.40
2006,12,12,13,59,7.70
2006,12,12,14,00,5.50
2006,12,12,14,01,5.20
2006,12,12,14,02,6.60
2006,12,12,14,03,5.90
2006,12,12,14,04,6.00
2006,12,12,14,05,7.40
2006,12,12,14,06,7.00
2006,12,12,14,07,5.60
2006,12,12,14,08,2.10
2006,12,12,14,09,4.60
2006,12,12,14,10,6.30
2006,12,12,14,11,4.80
2006,12,12,14,12,3.00
2006,12,12,14,13,11.20
2006,12,12,14,14,5.00
2006,12,12,14,15,5.30
2006,12,12,14,16,3.50
2006,12,12,14,17,3.60
2006,12,12,14,18,6.20
2006,12,12,14,19,3.50
2006,12,12,14,20,7.10
2006,12,12,14,21,6.80
2006,12,12,14,22,3.10
2006,12,12,14,23,2.60
2006,12,12,14,24,4.20
2006,12,12,14,25,3.60
2006,12,12,14,26,3.10
2006,12,12,14,27,4.30
2006,12,12,14,28,5.20
2006,12,12,14,29,7.70
2006,12,12,14,30,6.40
2006,12,12,14,31,7.00
2006,12,12,14,32,4.80
2006,12,12,14,33,6.10
2006,12,12,14,34,5.60
2006,12,12,14,35,4.70
2006,12,12,14,36,4.00
2006,12,12,14,37,4.30
2006,12,12,14,38,2.50
2006,12,12,14,39,4.70
2006,12,12,14,40,6.40
2006,12,12,14,41,3.40
2006,12,12,14,42,5.90
2006,12,12,14,43,5.10
2006,12,12,14,44,5.60
2006,12,12,14,45,2.80
2006,12,12,14,46,1.50
2006,12,12,14,47,2.20
2006,12,12,14,48,2.50
2006,12,12,14,49,6.00
2006,12,12,14,50,4.70
2006,12,12,14,51,5.10
2006,12,12,14,52,5.90
2006,12,12,14,53,4.30
2006,12,12,14,54,3.00
2006,12,12,14,55,4.30
2006,12,12,14,56,0.40
2006,12,12,14,57,3.00
2006,12,12,14,58,4.10
2006,12,12,14,59,2.50
2006,12,12,15,00,4.60
2006,12,12,15,01,5.20
2006,12,12,15,02,0.70
2006,12,12,15,03,0.30
2006,12,12,15,04,4.60
2006,12,12,15,05,5.40
2006,12,12,15,06,2.40
2006,12,12,15,07,0.70
2006,12,12,15,08,0.40
2006,12,12,15,09,0.00
2006,12,12,15,10,0.00
2006,12,12,15,11,0.90
2006,12,12,15,12,1.40
2006,12,12,15,13,0.00
2006,12,12,15,14,0.10
2006,12,12,15,15,0.50
2006,12,12,15,16,3.00
2006,12,12,15,17,1.00
2006,12,12,15,18,0.50
2006,12,12,15,19,0.60
2006,12,12,15,20,1.50
2006,12,12,15,21,0.60
2006,12,12,15,22,0.50
2006,12,12,15,23,0.30
2006,12,12,15,24,0.20
2006,12,12,15,25,0.20
2006,12,12,15,26,0.00
2006,12,12,15,27,1.40
2006,12,12,15,28,0.10
2006,12,12,15,29,0.70
2006,12,12,15,30,0.20
2006,12,12,15,31,0.90
2006,12,12,15,32,0.60
2006,12,12,15,33,0.00
2006,12,12,15,34,0.10
2006,12,12,15,35,0.00
2006,12,12,15,36,0.00
2006,12,12,15,37,0.00
2006,12,12,15,38,0.10
2006,12,12,15,39,2.80
2006,12,12,15,40,0.70
2006,12,12,15,41,2.20
2006,12,12,15,42,2.10
2006,12,12,15,43,1.00
2006,12,12,15,44,2.00
2006,12,12,15,45,1.80
2006,12,12,15,46,0.10
2006,12,12,15,47,0.80
2006,12,12,15,48,1.30
2006,12,12,15,49,1.50
2006,12,12,15,50,0.60
2006,12,12,15,51,0.00
2006,12,12,15,52,0.00
2006,12,12,15,53,0.00
2006,12,12,15,54,0.20
2006,12,12,15,55,1.90
2006,12,12,15,56,0.40
2006,12,12,15,57,0.70
2006,12,12,15,58,0.00
2006,12,12,15,59,0.00
2006,12,12,16,00,0.00
2006,12,12,16,01,0.00
2006,12,12,16,02,0.00
2006,12,12,16,03,0.00
2006,12,12,16,04,0.00
2006,12,12,16,05,0.00
2006,12,12,16,06,0.00
2006,12,12,16,07,0.00
2006,12,12,16,08,0.00
2006,12,12,16,09,0.00
2006,12,12,16,10,0.00
2006,12,12,16,11,0.00
2006,12,12,16,12,0.00
2006,12,12,16,13,0.00
2006,12,12,16,14,0.00
2006,12,12,16,15,0.00
2006,12,12,16,16,0.00
2006,12,12,16,17,0.00
2006,12,12,16,18,0.00
2006,12,12,16,19,0.00
2006,12,12,16,20,0.00
2006,12,12,16,21,0.00
2006,12,12,16,22,0.00
2006,12,12,16,23,0.00
2006,12,12,16,24,0.00
2006,12,12,16,25,0.00
2006,12,12,16,26,0.00
2006,12,12,16,27,0.00
2006,12,12,16,28,0.00
2006,12,12,16,29,0.00
2006,12,12,16,30,0.00
2006,12,12,16,31,0.00
2006,12,12,16,32,0.00
2006,12,12,16,33,0.00
2006,12,12,16,34,0.00
2006,12,12,16,35,0.00
2006,12,12,16,36,0.20
2006,12,12,16,37,0.70
2006,12,12,16,38,0.80
2006,12,12,16,39,0.50
2006,12,12,16,40,0.00
2006,12,12,16,41,0.00
2006,12,12,16,42,0.20
2006,12,12,16,43,0.00
2006,12,12,16,44,0.10
2006,12,12,16,45,0.50
2006,12,12,16,46,0.30
2006,12,12,16,47,0.20
2006,12,12,16,48,0.50
2006,12,12,16,49,0.20
2006,12,12,16,50,0.00
2006,12,12,16,51,0.00
2006,12,12,16,52,0.00
2006,12,12,16,53,0.00
2006,12,12,16,54,0.00
2006,12,12,16,55,0.00
2006,12,12,16,56,0.00
2006,12,12,16,57,0.00
2006,12,12,16,58,0.00
2006,12,12,16,59,0.00
2006,12,12,17,00,1.40
2006,12,12,17,01,0.80
2006,12,12,17,02,0.00
2006,12,12,17,03,0.20
2006,12,12,17,04,0.10
2006,12,12,17,05,0.70
2006,12,12,17,06,0.30
2006,12,12,17,07,0.00
2006,12,12,17,08,0.00
2006,12,12,17,09,0.00
2006,12,12,17,10,3.00
2006,12,12,17,11,2.10
2006,12,12,17,12,1.50
2006,12,12,17,13,0.50
2006,12,12,17,14,0.70
2006,12,12,17,15,0.80
2006,12,12,17,16,0.10
2006,12,12,17,17,0.60
2006,12,12,17,18,0.20
2006,12,12,17,19,0.00
2006,12,12,17,20,1.40
2006,12,12,17,21,1.80
2006,12,12,17,22,0.80
2006,12,12,17,23,2.40
2006,12,12,17,24,0.80
2006,12,12,17,25,1.60
2006,12,12,17,26,3.10
2006,12,12,17,27,5.90
2006,12,12,17,28,1.50
2006,12,12,17,29,0.40
2006,12,12,17,30,3.40
2006,12,12,17,31,3.20
2006,12,12,17,32,4.20
2006,12,12,17,33,4.50
2006,12,12,17,34,1.20
2006,12,12,17,35,2.00
2006,12,12,17,36,0.90
2006,12,12,17,37,0.50
2006,12,12,17,38,2.40
2006,12,12,17,39,4.80
2006,12,12,17,40,0.90
2006,12,12,17,41,0.60
2006,12,12,17,42,3.90
2006,12,12,17,43,1.90
2006,12,12,17,44,2.20
2006,12,12,17,45,3.00
2006,12,12,17,46,1.70
2006,12,12,17,47,1.80
2006,12,12,17,48,0.60
2006,12,12,17,49,0.50
2006,12,12,17,50,2.30
2006,12,12,17,51,5.10
2006,12,12,17,52,2.30
2006,12,12,17,53,2.40
2006,12,12,17,54,2.80
2006,12,12,17,55,0.80
2006,12,12,17,56,4.90
2006,12,12,17,57,5.10
2006,12,12,17,58,2.30
2006,12,12,17,59,1.00
2006,12,12,18,00,2.50
2006,12,12,18,01,0.60
2006,12,12,18,02,0.50
2006,12,12,18,03,2.30
2006,12,12,18,04,2.50